Historique des stations

Station météo de Sandillon

Altitude de la station : 98 m







Données météorologiques pour le 02/12/2021
Date
Heure
Températures Humidité Point de rosée Vitesse
du vent
Direction Rafales Windchill Pression Pluviométrie
Cumul
Date
Heure
Températures Humidité Point de rosée Vitesse
du vent
Direction Rafales Windchill Pression Pluviométrie
Cumul
02/12/2021 17:444.3 °C78 %0.6 °C5 km/hO32 km/h3.3 1013 hPa0.6 mm
02/12/2021 17:294.5 °C78 %1.1 °C3 km/hO32 km/h3.9 1012 hPa0.6 mm
02/12/2021 17:154.6 °C77 %1.1 °C6 km/hO11 km/h3.3 1012 hPa0.6 mm
02/12/2021 17:134.6 °C77 %1.1 °C6 km/hOSO32 km/h3.3 1012 hPa0.6 mm
02/12/2021 16:594.9 °C77 %1.1 °C3 km/hOSO32 km/h3.3 1012 hPa0.6 mm
02/12/2021 16:445.1 °C73 %0.6 °C2 km/hNO32 km/h4.4 1012 hPa0.6 mm
02/12/2021 16:295.1 °C72 %0.6 °C2 km/hONO32 km/h3.9 1012 hPa0.6 mm
02/12/2021 16:145.3 °C70 %0.0 °C3 km/hONO32 km/h3.3 1011 hPa0.6 mm
02/12/2021 16:005.7 °C68 %0.0 °C13 km/hONO21 km/h3.3 1011 hPa0.6 mm
02/12/2021 15:585.7 °C68 %0.0 °C13 km/hO32 km/h3.9 1011 hPa0.6 mm
02/12/2021 15:455.9 °C69 %0.6 °C18 km/hONO24 km/h3.3 1011 hPa0.6 mm
02/12/2021 15:436.0 °C70 %1.1 °C6 km/hO32 km/h3.9 1011 hPa0.6 mm
02/12/2021 15:296.3 °C70 %1.1 °C8 km/hN32 km/h3.9 1011 hPa0.6 mm
02/12/2021 15:146.5 °C69 %1.1 °C18 km/hOSO32 km/h4.4 1011 hPa0.6 mm
02/12/2021 14:596.7 °C70 %1.7 °C21 km/hNNO31 km/h5.0 1011 hPa0.6 mm
02/12/2021 14:456.4 °C70 %1.1 °C6 km/hOSO31 km/h4.4 1011 hPa0.6 mm
02/12/2021 14:306.2 °C71 %1.1 °C10 km/hONO26 km/h3.3 1010 hPa0.6 mm
02/12/2021 14:286.2 °C71 %1.1 °C14 km/hONO31 km/h3.3 1010 hPa0.6 mm
02/12/2021 14:146.0 °C73 %1.7 °C16 km/hOSO27 km/h3.9 1010 hPa0.6 mm
02/12/2021 13:595.2 °C79 %1.7 °C13 km/hONO27 km/h3.3 1010 hPa0.6 mm
02/12/2021 13:445.9 °C77 %2.2 °C11 km/hO27 km/h3.3 1010 hPa0.6 mm
02/12/2021 13:305.5 °C78 %2.2 °C13 km/hO27 km/h3.3 1010 hPa0.6 mm
02/12/2021 13:135.1 °C79 %1.7 °C11 km/hO27 km/h2.8 1011 hPa0.6 mm
02/12/2021 12:595.4 °C85 %3.3 °C6 km/hNO27 km/h3.9 1011 hPa0.6 mm
02/12/2021 12:445.4 °C85 %3.3 °C11 km/hO27 km/h3.3 1011 hPa0.6 mm
02/12/2021 12:295.2 °C85 %2.8 °C6 km/hONO27 km/h3.9 1011 hPa0.6 mm
02/12/2021 12:155.2 °C85 %2.8 °C8 km/hNO19 km/h3.3 1011 hPa0.6 mm
02/12/2021 12:135.2 °C85 %2.8 °C5 km/hONO27 km/h3.3 1011 hPa0.6 mm
02/12/2021 11:595.2 °C84 %2.8 °C10 km/hONO27 km/h2.8 1011 hPa0.6 mm
02/12/2021 11:445.1 °C85 %2.8 °C13 km/hNO27 km/h3.3 1011 hPa0.6 mm
02/12/2021 11:305.0 °C85 %2.8 °C3 km/hONO16 km/h3.9 1011 hPa0.6 mm
02/12/2021 11:285.0 °C85 %2.8 °C5 km/hNNO27 km/h3.3 1011 hPa0.6 mm
02/12/2021 11:134.7 °C87 %2.8 °C3 km/hO27 km/h2.8 1011 hPa0.6 mm
02/12/2021 10:594.2 °C87 %2.2 °C10 km/hONO27 km/h2.2 1011 hPa0.6 mm
02/12/2021 10:444.3 °C87 %2.2 °C16 km/hONO27 km/h2.2 1011 hPa0.6 mm
02/12/2021 10:294.5 °C87 %2.8 °C14 km/hNO27 km/h2.2 1010 hPa0.6 mm
02/12/2021 10:143.8 °C89 %2.2 °C2 km/hO27 km/h1.7 1010 hPa0.6 mm
02/12/2021 10:003.0 °C91 %1.7 °C13 km/hONO13 km/h1.7 1010 hPa0.6 mm
02/12/2021 09:583.0 °C91 %1.7 °C3 km/hONO27 km/h1.7 1010 hPa0.6 mm
02/12/2021 09:452.9 °C92 %1.7 °C8 km/hNO13 km/h1.7 1010 hPa0.6 mm
02/12/2021 09:432.9 °C92 %1.7 °C3 km/hNO27 km/h1.7 1010 hPa0.6 mm
02/12/2021 09:292.7 °C92 %1.7 °C5 km/hO27 km/h1.7 1010 hPa0.6 mm
02/12/2021 09:142.6 °C93 %1.7 °C5 km/hO27 km/h2.2 1009 hPa0.6 mm
02/12/2021 09:002.4 °C93 %1.7 °C2 km/hONO27 km/h2.2 1009 hPa0.6 mm
02/12/2021 08:452.5 °C93 %1.7 °C5 km/hO13 km/h1.1 1009 hPa0.6 mm
02/12/2021 08:432.5 °C93 %1.7 °C2 km/hO27 km/h2.2 1009 hPa0.6 mm
02/12/2021 08:292.5 °C93 %1.7 °C5 km/hOSO27 km/h2.2 1009 hPa0.6 mm
02/12/2021 08:142.8 °C92 %1.7 °C2 km/hONO27 km/h1.7 1008 hPa0.6 mm
02/12/2021 07:593.2 °C91 %1.7 °C8 km/hNO27 km/h1.7 1008 hPa0.6 mm
02/12/2021 07:453.6 °C91 %2.2 °C13 km/hONO27 km/h2.2 1008 hPa0.6 mm
02/12/2021 07:304.1 °C90 %2.8 °C14 km/hONO21 km/h1.1 1008 hPa0.6 mm
02/12/2021 07:284.1 °C90 %2.8 °C11 km/hNO27 km/h1.1 1008 hPa0.6 mm
02/12/2021 07:144.6 °C91 %3.3 °C3 km/hNO27 km/h1.7 1008 hPa0.6 mm
02/12/2021 06:594.7 °C93 %3.9 °C14 km/hONO23 km/h2.2 1008 hPa0.6 mm
02/12/2021 06:444.7 °C94 %3.9 °C8 km/hNO23 km/h3.3 1007 hPa0.6 mm
02/12/2021 06:304.8 °C95 %3.9 °C6 km/hNNO23 km/h2.8 1007 hPa0.6 mm
02/12/2021 06:284.8 °C95 %3.9 °C8 km/hO19 km/h2.8 1007 hPa0.6 mm
02/12/2021 06:144.6 °C96 %3.9 °C10 km/hONO16 km/h3.9 1007 hPa0.6 mm
02/12/2021 05:594.6 °C100 %4.4 °C5 km/hONO14 km/h3.9 1007 hPa0.6 mm
02/12/2021 05:454.4 °C97 %3.9 °C5 km/hONO14 km/h3.3 1006 hPa0.4 mm
02/12/2021 05:304.0 °C97 %3.3 °C5 km/hONO10 km/h3.9 1006 hPa0.2 mm
02/12/2021 05:284.0 °C97 %3.3 °C2 km/hONO13 km/h3.9 1006 hPa0.2 mm
02/12/2021 05:143.9 °C96 %3.3 °C3 km/hO13 km/h2.8 1006 hPa0.2 mm
02/12/2021 04:593.8 °C96 %3.3 °C5 km/hOSO13 km/h2.8 1006 hPa0.2 mm
02/12/2021 04:443.8 °C96 %3.3 °C5 km/hO13 km/h2.8 1006 hPa-
02/12/2021 04:283.8 °C96 %3.3 °C5 km/hOSO13 km/h2.8 1006 hPa-
02/12/2021 04:143.7 °C96 %3.3 °C3 km/hO8 km/h3.3 1006 hPa-
02/12/2021 03:593.8 °C97 %3.3 °C3 km/hO8 km/h3.3 1006 hPa-
02/12/2021 03:443.7 °C97 %3.3 °C2 km/hOSO8 km/h3.3 1006 hPa-
02/12/2021 03:293.6 °C97 %3.3 °C5 km/hO8 km/h3.3 1006 hPa-
02/12/2021 03:153.2 °C97 %2.8 °C2 km/hSO5 km/h3.3 1005 hPa-
02/12/2021 03:133.2 °C97 %2.8 °C2 km/hSO8 km/h3.3 1005 hPa-
02/12/2021 03:003.1 °C97 %2.8 °C-SO3 km/h3.3 1005 hPa-
02/12/2021 02:583.1 °C97 %2.8 °C-SO8 km/h3.3 1005 hPa-
02/12/2021 02:442.9 °C96 %2.2 °C5 km/hOSO8 km/h2.8 1005 hPa-
02/12/2021 02:293.1 °C96 %2.2 °C-OSO8 km/h3.3 1005 hPa-
02/12/2021 02:153.3 °C96 %2.8 °C3 km/hSO8 km/h3.3 1005 hPa-
02/12/2021 02:133.3 °C96 %2.8 °C5 km/hOSO8 km/h3.3 1005 hPa-
02/12/2021 01:593.3 °C96 %2.8 °C3 km/hOSO8 km/h3.3 1005 hPa-
02/12/2021 01:443.4 °C96 %2.8 °C3 km/hSO8 km/h2.2 1005 hPa-
02/12/2021 01:303.2 °C96 %2.8 °C6 km/hSO6 km/h2.8 1005 hPa-
02/12/2021 01:283.2 °C96 %2.8 °C2 km/hSO8 km/h2.8 1005 hPa-
02/12/2021 01:153.4 °C96 %2.8 °C2 km/hSO6 km/h3.3 1005 hPa-
02/12/2021 01:133.4 °C96 %2.8 °C2 km/hSO8 km/h3.3 1005 hPa-
02/12/2021 01:013.6 °C96 %2.8 °C2 km/hSSO8 km/h3.3 1005 hPa-
02/12/2021 00:443.8 °C96 %3.3 °C2 km/hSSO8 km/h3.3 1005 hPa-
02/12/2021 00:303.9 °C96 %3.3 °C2 km/hSSO8 km/h3.9 1005 hPa-
02/12/2021 00:153.8 °C96 %3.3 °C3 km/hSO6 km/h3.3 1005 hPa-
02/12/2021 00:133.7 °C96 %3.3 °C2 km/hSO8 km/h3.3 1005 hPa-


Minima :

Température : 2.4 °C
Humidité : 68 %
Point de rosée : 0.0 °C
Vent moyen : 2 km/h
Windchill : 1.1
Pression atm. : 1005 hPa
Maxima :

Température : 6.7 °C
Humidité : 100 %
Point de rosée : 4.4 °C
Vent moyen : 21 km/h
Windchill : 5.0
Pression atm. : 1013 hPa
Rafales max : 32 km/h
Cumul de pluie sur 24H : 0.6 mm

Sandillon est une commune du département Loiret (45).
La station météorologique du réseau de l'association la plus proche de Sandillon est celle de Olivet
Site du propriétaire de la station : www.meteosandillon.fr



Icône Facebook Association Météo Centre Icône Twitter Association Météo Centre Icône Chaîne Youtube Association Météo Centre Icône contact Association Météo Centre Icône Insta Association Météo Centre